Probability
0 0 0 0 0 0 0 0 1 3 3 3 3 5 6 6 6 4 2 0 2 4 4 4 3 2 2 2 2 1 1 1 2 2 1 0 0 0 0 0 0 0 0
0 0 0 0 0 0 0 1 2 3 3 2 3 4 5 6 5 4 2 1 2 4 4 4 3 2 1 1 1 1 0 1 2 2 1 0 0 0 0 0 0 0 0
0 0 0 0 0 0 0 1 2 2 2 2 2 3 4 4 4 3 2 1 2 4 4 4 4 3 1 0 0 0 0 0 1 1 0 0 0 0 0 0 0 0 0
0 0 0 0 0 0 0 1 2 2 2 3 3 3 3 3 4 3 2 2 3 5 5 5 5 3 1 1 1 0 0 0 0 0 0 0 0 0 0 0 0 0 0
0 0 0 0 0 0 0 1 2 3 3 3 4 5 4 4 5 5 3 3 4 5 5 5 4 3 3 2 2 1 0 0 0 0 0 0 0 0 0 0 0 0 0
0 0 0 0 0 0 0 1 2 3 3 3 4 5 5 4 5 6 5 5 4 4 5 4 4 4 4 3 2 1 0 0 0 0 0 0 0 0 0 0 0 0 0
0 0 0 0 0 0 0 0 1 2 2 2 2 3 4 5 6 8 7 6 4 4 5 5 4 4 4 3 1 0 0 0 0 0 0 0 0 0 0 0 0 0 0
0 0 1 1 0 0 0 0 0 1 1 2 1 2 4 4 6 8 7 5 5 5 5 4 4 3 3 3 2 1 1 0 0 0 0 0 0 0 0 0 0 0 0
0 0 1 2 1 1 1 0 1 1 2 3 2 3 3 4 4 5 5 5 5 5 4 4 3 3 3 3 3 4 2 1 0 0 0 0 0 0 0 0 0 0 0
0 0 1 2 2 2 2 1 1 3 4 4 3 3 3 3 4 4 5 5 5 5 4 3 2 2 3 3 4 4 2 1 0 0 0 0 0 0 0 0 0 0 0
0 0 0 1 2 2 2 1 2 3 4 3 3 3 4 4 5 5 6 6 6 5 4 2 1 1 2 3 2 2 1 0 0 0 0 0 0 0 0 0 0 0 0
0 0 0 0 1 1 1 1 2 3 3 2 2 2 4 5 5 6 6 7 6 4 3 2 1 0 1 2 1 0 0 0 0 0 0 0 0 0 0 0 0 0 0
0 0 0 0 1 2 2 2 3 3 3 3 2 2 3 4 4 5 7 7 5 4 3 2 1 0 0 0 0 0 0 0 0 0 0 0 0 0 0 0 0 0 0
0 0 0 0 1 3 4 4 3 2 2 2 2 2 2 2 2 3 5 6 5 4 4 2 1 0 0 0 0 0 0 0 0 0 0 0 0 0 0 0 0 0 0
0 0 0 1 2 5 6 6 4 3 1 1 1 1 1 0 0 1 3 4 4 4 3 2 1 0 0 0 0 0 0 0 0 0 0 0 0 0 0 0 0 0 0
0 0 0 1 3 6 8 8 6 3 1 0 0 0 0 0 0 0 1 3 3 3 3 2 1 0 0 0 0 0 0 0 0 0 0 0 0 0 0 0 0 0 0
0 0 0 1 2 5 6 6 5 3 1 1 1 1 0 0 0 0 1 2 2 2 1 1 0 0 0 0 0 0 0 0 0 0 0 1 0 0 0 0 0 0 0
0 0 0 0 1 3 4 4 3 2 1 1 2 2 1 0 0 0 0 1 1 1 0 0 0 0 0 0 0 0 0 1 0 0 0 0 0 0 0 1 0 0 0
1 0 0 0 1 3 3 3 3 3 2 1 1 1 1 0 0 0 0 0 0 0 0 0 0 0 0 0 0 0 0 0 0 0 0 0 0 0 0 1 1 1 0
3 2 1 1 2 3 3 3 3 3 2 1 0 0 0 0 0 0 0 0 0 0 0 0 0 0 0 0 0 0 0 0 0 0 0 0 0 0 0 1 2 1 1
5 5 4 3 4 4 4 3 3 3 2 1 0 0 0 0 0 0 0 0 0 0 1 1 1 0 0 0 0 0 0 0 0 1 1 0 0 0 0 1 1 1 0
7 7 7 7 7 6 5 4 3 3 2 0 0 0 0 0 0 0 0 0 0 0 1 2 2 1 0 0 0 0 0 0 0 0 1 1 0 0 0 0 1 1 1
8 9 10 11 11 10 7 4 3 3 2 1 0 0 0 0 0 0 0 0 0 0 1 2 3 3 3 2 2 2 1 0 0 0 0 1 1 1 0 1 2 3 4
11 11 13 15 15 14 11 7 5 3 3 2 1 0 0 0 0 0 0 1 1 1 1 2 4 6 7 7 6 6 4 3 3 2 1 1 2 2 2 2 4 5 6
12 13 15 17 18 18 16 13 9 6 3 3 2 0 0 0 1 1 1 2 2 2 2 3 6 9 11 12 10 9 9 8 7 5 2 1 1 2 2 2 4 5 6
13 13 15 17 19 20 19 17 13 8 5 3 1 0 0 1 2 2 1 2 3 3 3 4 7 10 12 13 12 11 11 10 9 7 4 1 0 1 1 2 3 4 4
Wind_Speed
3 5 7 6 7 8 8 9 9 10 11 12 12 13 14 15 15 16 16 16 17 18 18 19 19 19 19 19 18 18 17 17 17 17 17 17 16 15 15 14 13 13 15
4 5 6 6 7 8 8 9 9 10 11 12 12 13 14 14 15 15 16 17 17 18 18 19 18 18 18 18 18 17 17 17 16 17 17 16 15 14 13 10 9 13 14
4 5 6 7 7 8 8 9 9 10 11 12 12 13 13 14 15 15 16 16 17 18 18 18 18 17 17 17 17 16 16 16 15 15 13 13 14 13 12 13 15 15 14
5 6 8 8 7 8 8 9 10 11 11 12 12 12 13 13 14 15 16 16 16 17 17 17 17 17 17 16 16 16 15 14 13 10 9 11 12 14 13 13 14 13 13
6 6 10 7 8 9 9 10 10 11 11 11 12 12 13 13 14 15 15 15 16 16 17 17 16 16 16 16 15 15 14 13 10 7 10 10 11 13 13 13 13 12 12
6 7 11 8 8 9 9 9 10 10 11 11 11 12 13 13 14 15 15 14 15 16 16 16 15 15 15 15 14 14 12 10 9 9 9 9 11 12 12 13 12 11 11
7 7 10 8 8 9 9 10 10 10 11 11 11 12 12 13 14 14 14 14 15 15 15 15 14 14 14 14 13 12 10 5 5 9 8 8 11 12 11 11 11 11 10
7 7 9 9 8 8 8 9 10 10 11 11 11 12 13 13 13 13 13 13 14 14 14 14 13 13 12 12 11 10 7 4 7 8 7 9 12 10 10 10 10 10 9
6 6 6 7 8 8 8 9 9 10 10 11 12 12 13 13 13 12 12 13 13 13 13 12 12 12 11 10 10 9 6 2 3 6 7 8 11 9 9 9 9 9 9
5 6 5 6 6 6 8 10 9 9 10 11 11 11 11 12 12 12 12 12 12 12 11 11 11 10 10 9 9 8 6 5 4 6 5 9 11 9 9 8 8 8 8
5 4 4 6 6 5 7 8 7 8 8 8 9 9 7 7 9 9 12 11 11 10 10 10 9 9 8 10 9 8 7 3 4 3 5 12 10 8 8 8 7 7 7
5 5 5 5 5 4 5 5 4 5 5 4 6 6 5 5 5 7 11 10 9 9 9 9 8 9 7 7 9 9 3 3 3 4 7 12 9 8 7 7 7 7 7
5 4 5 5 4 3 3 3 3 3 3 5 5 5 5 4 4 5 5 7 7 7 6 8 7 3 3 3 2 2 1 1 1 3 8 11 8 7 7 7 7 7 7
4 5 4 5 4 3 3 3 2 3 2 3 4 3 4 3 3 3 2 3 3 3 3 2 2 3 2 2 1 1 2 1 1 2 7 10 8 7 7 7 7 7 7
5 5 5 4 4 3 2 1 3 2 2 3 3 3 3 3 3 3 2 2 2 3 3 2 2 2 2 2 2 1 1 1 0 1 5 8 7 6 7 7 8 8 8
5 5 5 4 5 3 3 2 2 2 2 2 2 3 2 2 2 2 2 1 1 1 2 1 2 2 1 1 1 1 1 1 1 1 2 7 8 6 6 6 7 7 8
5 5 5 5 5 4 3 3 2 2 2 1 2 2 1 1 2 1 1 1 1 1 2 1 1 2 2 2 2 1 1 1 1 1 1 2 5 7 6 5 5 6 7
5 5 5 4 5 5 3 2 1 1 1 1 1 1 1 0 1 1 1 1 1 1 1 1 2 1 1 2 1 1 1 2 2 3 3 2 2 3 5 5 5 5 6
6 6 6 4 4 4 4 3 2 1 1 1 1 1 1 1 1 2 0 1 1 1 1 2 1 1 1 1 2 2 1 1 2 2 2 3 2 2 2 5 5 4 5
7 7 6 6 5 5 4 3 2 2 2 1 1 1 1 1 1 1 1 1 1 1 1 1 0 1 1 1 1 0 0 0 0 1 1 1 1 2 2 2 4 5 5
9 8 8 7 7 5 4 4 3 3 2 2 2 1 1 1 1 1 1 1 2 1 1 2 1 2 2 1 1 1 1 2 1 1 1 0 1 1 1 1 2 1 3
10 10 9 9 8 7 4 3 2 1 2 1 1 1 1 1 1 2 1 1 1 1 1 1 1 1 1 2 2 2 2 3 2 1 2 1 1 1 1 1 0 1 2
11 11 9 9 8 8 6 5 4 3 3 3 3 2 2 1 1 0 1 1 1 2 1 1 2 3 2 2 2 3 2 1 1 2 2 1 1 0 0 0 0 1 1
11 11 10 9 9 8 8 6 6 4 3 3 2 2 2 2 2 2 1 1 2 2 1 3 2 3 3 3 2 3 4 2 2 1 2 2 2 1 0 1 0 0 0
12 11 10 10 9 9 8 7 7 5 4 3 3 3 3 3 3 2 2 1 2 2 1 2 1 3 3 3 3 3 3 2 4 3 2 2 1 1 1 0 0 1 1
11 11 11 11 10 9 9 8 8 6 5 4 4 3 4 3 3 3 3 2 2 1 1 2 2 3 3 3 4 3 3 3 3 3 2 2 1 1 1 0 0 0 1
Wind_Direction
58 51 52 30 44 47 48 53 58 67 73 78 82 87 90 94 96 98 100 102 103 106 109 110 111 111 110 110 110 111 111 112 113 113 114 114 115 116 119 127 132 114 113
69 66 67 42 49 51 53 57 60 68 78 85 90 91 92 95 98 100 102 102 104 106 108 109 110 111 110 110 111 111 112 113 114 116 118 116 114 114 116 114 95 107 120
81 78 85 56 52 55 58 62 65 69 79 88 93 95 93 96 99 103 103 104 105 106 108 108 109 110 110 110 111 111 111 113 115 123 134 124 114 111 110 104 105 116 119
78 79 75 64 59 60 61 65 70 72 81 89 93 96 96 96 99 102 104 105 106 107 109 108 108 110 110 110 110 110 111 113 120 145 135 116 117 112 112 112 116 120 120
82 82 82 66 63 65 65 66 71 74 81 91 95 97 98 98 100 102 103 104 106 108 109 108 109 111 111 110 110 109 111 117 137 151 108 110 110 117 119 119 119 121 122
102 92 86 72 66 67 68 69 71 73 82 92 98 99 100 100 101 103 102 103 105 107 107 108 109 111 112 112 113 113 118 136 164 118 114 119 114 122 125 125 124 125 126
96 90 89 80 70 68 67 68 72 75 84 89 97 100 102 101 100 103 102 103 105 106 106 107 109 111 113 115 117 118 121 150 128 109 118 113 108 125 130 129 129 128 128
96 93 95 99 80 72 69 70 75 77 83 87 98 103 104 102 101 103 105 106 107 109 109 109 110 111 112 115 120 124 133 186 126 115 115 107 109 128 132 134 134 134 136
98 95 97 106 106 99 81 83 81 80 82 87 97 102 104 104 104 107 107 108 110 111 111 112 112 112 115 117 120 124 131 238 134 119 120 112 123 135 136 141 142 142 143
104 101 102 95 93 104 101 93 87 83 84 89 95 104 113 119 118 121 118 110 112 113 114 114 114 116 118 123 126 130 152 208 131 126 119 115 133 145 145 145 149 151 153
108 100 96 96 93 88 91 100 108 104 94 108 106 118 135 120 117 125 102 112 114 115 116 117 120 127 136 139 141 153 188 173 125 111 103 115 143 153 155 156 158 158 160
125 119 105 91 88 87 86 98 96 102 96 86 85 103 107 100 99 105 117 120 120 123 129 127 139 163 188 148 152 184 191 149 137 128 113 131 151 163 166 167 169 171 175
134 125 116 104 98 93 90 97 92 90 97 100 94 102 98 108 117 119 131 138 137 148 142 145 171 158 131 111 146 162 131 135 133 123 122 144 160 172 176 178 183 186 188
135 127 116 111 104 75 63 93 112 109 102 92 100 94 106 102 101 102 114 113 132 129 128 145 131 114 107 129 144 129 146 171 113 97 121 149 167 180 185 191 196 199 201
146 138 125 124 122 121 102 66 97 91 94 97 92 94 90 111 108 109 104 108 122 124 145 146 124 119 154 170 184 167 197 132 154 131 130 149 168 185 197 202 208 209 211
160 150 144 153 142 140 137 127 105 121 113 96 104 102 108 101 99 114 134 121 126 133 97 128 138 158 172 157 178 166 226 210 131 185 154 151 165 182 203 212 212 217 218
172 165 163 164 155 159 157 164 152 145 138 125 121 128 142 132 120 164 130 163 117 119 139 163 170 175 177 178 170 184 205 218 175 186 197 166 167 177 190 207 215 222 226
179 171 178 178 157 166 173 188 162 139 127 151 158 138 141 129 196 228 187 150 131 175 171 172 203 185 171 188 169 208 203 183 189 198 199 186 197 180 173 196 217 222 231
184 177 178 186 174 175 169 173 176 148 153 185 171 154 138 191 209 232 240 70 223 214 218 237 139 214 193 193 191 190 212 198 196 205 201 206 193 194 176 166 196 200 214
180 180 183 187 186 186 181 178 184 175 179 175 182 128 167 183 193 252 198 152 238 216 231 237 237 216 232 222 258 77 299 184 189 162 219 198 186 206 206 188 190 181 194
182 183 188 192 184 192 193 196 188 182 188 174 184 156 185 212 182 233 281 157 243 231 270 262 235 184 200 180 207 199 178 167 134 146 174 179 164 193 181 201 236 228 180
188 188 189 193 191 194 185 195 196 207 193 172 174 144 203 205 220 202 210 234 214 231 219 246 230 266 228 210 241 237 211 176 168 159 147 167 160 157 143 160 285 258 264
192 191 191 191 190 195 190 191 183 183 202 182 181 174 187 199 193 277 194 279 282 263 206 231 233 242 255 237 247 270 270 251 157 154 153 144 165 118 242 59 66 346 274
193 190 190 189 191 191 194 201 199 202 202 184 192 159 172 191 197 192 211 234 271 281 249 243 209 249 254 253 231 248 272 305 261 179 173 158 159 176 350 306 46 91 275
192 188 186 187 190 191 195 197 204 208 201 185 182 165 198 184 199 200 204 216 233 260 274 279 264 261 254 260 262 248 241 237 247 243 210 187 178 166 163 223 351 20 29
189 188 185 185 190 191 195 198 205 208 207 200 198 186 197 184 188 188 200 208 228 253 245 256 259 244 270 277 275 266 253 245 240 241 233 209 184 148 141 86 270 72 40